Location: Biltmore Gardens
(41.6070°N, 83.4666°W)
Time: 14:01:18
(UTC+00:00)

Cosmos 2173 Rocket - Pass Details

Date: 14 July 2020
Orbit: 944 x 1001 km, 83.0° (Epoch: 05 August)

Event Time Altitude Azimuth Distance (km) Brightness Sun altitude
Exits shadow 06:56:52 52° 182° (S) 1,225 4.1 -24.3°
Maximum altitude 06:58:36 87° 98° (E) 1,002 4.0 -24.2°
Drops below altitude 10° 07:04:57 10° 8° (N) 2,752 7.4 -23.8°
Sets 07:07:27 0° 8° (N) 3,696 8.3 -23.6°
